TimeEDT,TemperatureF,Dew PointF,Humidity,Sea Level PressureIn,VisibilityMPH,Wind Direction,Wind SpeedMPH,Gust SpeedMPH,PrecipitationIn,Events,Conditions,WindDirDegrees,DateUTC
12:15 AM,59.0,57.2,94,30.05,5.0,ENE,8.1,17.3,0.02,,Overcast,70,2012-10-10 04:15:00
12:35 AM,59.0,57.2,94,30.05,3.0,ENE,10.4,-,0.04,,Overcast,70,2012-10-10 04:35:00
12:55 AM,59.0,57.2,94,30.05,3.0,ENE,10.4,-,0.07,,Overcast,70,2012-10-10 04:55:00
1:15 AM,59.0,57.2,94,30.04,3.0,ENE,10.4,-,0.02,,Overcast,60,2012-10-10 05:15:00
1:35 AM,59.0,57.2,94,30.04,3.0,ENE,8.1,-,0.07,,Overcast,70,2012-10-10 05:35:00
1:55 AM,59.0,57.2,94,30.03,3.0,ENE,8.1,-,0.11,,Overcast,60,2012-10-10 05:55:00
2:15 AM,59.0,57.2,94,30.03,3.0,ENE,11.5,-,0.05,,Overcast,60,2012-10-10 06:15:00
2:35 AM,59.0,57.2,94,30.02,4.0,NE,6.9,-,0.10,,Overcast,50,2012-10-10 06:35:00
2:55 AM,59.0,57.2,94,30.01,7.0,ENE,5.8,16.1,0.20,,Overcast,70,2012-10-10 06:55:00
3:15 AM,59.0,57.2,94,30.00,7.0,ENE,9.2,-,0.08,,Overcast,60,2012-10-10 07:15:00
3:35 AM,59.0,57.2,94,29.99,3.0,ENE,8.1,-,0.14,,Overcast,60,2012-10-10 07:35:00
3:55 AM,59.0,57.2,94,29.99,3.0,ENE,9.2,-,0.20,,Overcast,70,2012-10-10 07:55:00
4:15 AM,59.0,57.2,94,29.98,3.0,ENE,10.4,-,0.06,,Overcast,60,2012-10-10 08:15:00
4:35 AM,59.0,57.2,94,29.97,3.0,ENE,11.5,17.3,0.11,,Overcast,60,2012-10-10 08:35:00
4:55 AM,60.8,59.0,94,29.96,3.0,ENE,11.5,-,0.17,,Overcast,60,2012-10-10 08:55:00
5:15 AM,60.8,57.2,88,29.97,3.0,NE,6.9,-,0.06,,Overcast,50,2012-10-10 09:15:00
5:35 AM,59.0,57.2,94,29.96,5.0,NNE,9.2,-,0.17,,Overcast,30,2012-10-10 09:35:00
5:55 AM,57.2,57.2,100,29.96,5.0,NNE,9.2,-,0.25,,Overcast,20,2012-10-10 09:55:00
6:15 AM,57.2,57.2,100,29.95,5.0,NNE,8.1,-,0.09,,Overcast,20,2012-10-10 10:15:00
6:35 AM,57.2,57.2,100,29.95,9.0,NNE,10.4,-,0.21,,Overcast,30,2012-10-10 10:35:00
6:55 AM,57.2,57.2,100,29.94,5.0,NNE,11.5,-,0.46,,Mostly Cloudy,20,2012-10-10 10:55:00
7:15 AM,57.2,55.4,94,29.94,5.0,NW,5.8,-,0.16,,Overcast,320,2012-10-10 11:15:00
7:35 AM,57.2,55.4,94,29.94,6.0,NW,9.2,-,0.22,,Mostly Cloudy,320,2012-10-10 11:35:00
7:55 AM,57.2,55.4,94,29.94,10.0,NNW,6.9,-,0.22,,Overcast,340,2012-10-10 11:55:00
8:15 AM,57.2,55.4,94,29.95,10.0,NW,8.1,-,N/A,,Overcast,310,2012-10-10 12:15:00
8:35 AM,59.0,57.2,94,29.95,10.0,WNW,6.9,-,N/A,,Overcast,290,2012-10-10 12:35:00
8:55 AM,60.8,57.2,88,29.95,10.0,WNW,8.1,-,N/A,,Overcast,300,2012-10-10 12:55:00
9:35 AM,60.8,57.2,88,29.94,10.0,NW,6.9,-,N/A,,Mostly Cloudy,310,2012-10-10 13:35:00
9:55 AM,62.6,57.2,82,29.94,10.0,WNW,6.9,-,N/A,,Mostly Cloudy,300,2012-10-10 13:55:00
10:15 AM,62.6,57.2,82,29.94,10.0,West,9.2,-,N/A,,Overcast,260,2012-10-10 14:15:00
10:35 AM,60.8,57.2,88,29.93,10.0,WSW,6.9,-,N/A,,Overcast,250,2012-10-10 14:35:00
10:55 AM,64.4,57.2,77,29.92,10.0,West,10.4,-,N/A,,Overcast,280,2012-10-10 14:55:00
11:15 AM,64.4,57.2,77,29.92,10.0,West,9.2,-,N/A,,Mostly Cloudy,260,2012-10-10 15:15:00
11:35 AM,64.4,57.2,77,29.92,10.0,West,11.5,-,N/A,,Mostly Cloudy,270,2012-10-10 15:35:00
11:55 AM,64.4,57.2,77,29.91,10.0,West,11.5,17.3,N/A,,Overcast,260,2012-10-10 15:55:00
12:15 PM,64.4,55.4,73,29.91,10.0,WSW,12.7,18.4,N/A,,Overcast,250,2012-10-10 16:15:00
12:55 PM,64.4,55.4,73,29.89,10.0,West,10.4,-,N/A,,Overcast,260,2012-10-10 16:55:00
1:15 PM,66.2,55.4,68,29.88,10.0,West,11.5,18.4,N/A,,Mostly Cloudy,270,2012-10-10 17:15:00
1:35 PM,66.2,55.4,68,29.87,10.0,WSW,9.2,-,N/A,,Mostly Cloudy,240,2012-10-10 17:35:00
1:55 PM,66.2,55.4,68,29.85,10.0,WSW,12.7,18.4,N/A,,Overcast,250,2012-10-10 17:55:00
2:15 PM,66.2,53.6,64,29.85,10.0,West,12.7,19.6,N/A,,Scattered Clouds,260,2012-10-10 18:15:00
2:35 PM,66.2,53.6,64,29.84,10.0,West,10.4,17.3,N/A,,Mostly Cloudy,260,2012-10-10 18:35:00
2:55 PM,66.2,51.8,60,29.84,10.0,West,9.2,21.9,N/A,,Mostly Cloudy,260,2012-10-10 18:55:00
3:15 PM,66.2,51.8,60,29.83,10.0,West,13.8,19.6,N/A,,Overcast,280,2012-10-10 19:15:00
3:35 PM,66.2,51.8,60,29.83,10.0,WSW,17.3,20.7,N/A,,Scattered Clouds,240,2012-10-10 19:35:00
3:55 PM,66.2,50.0,56,29.82,10.0,West,11.5,19.6,N/A,,Partly Cloudy,260,2012-10-10 19:55:00
4:15 PM,66.2,50.0,56,29.82,10.0,West,13.8,18.4,N/A,,Partly Cloudy,260,2012-10-10 20:15:00
4:35 PM,66.2,48.2,52,29.83,10.0,WSW,11.5,18.4,N/A,,Scattered Clouds,250,2012-10-10 20:35:00
4:55 PM,66.2,48.2,52,29.83,10.0,West,10.4,-,N/A,,Mostly Cloudy,260,2012-10-10 20:55:00
5:15 PM,64.4,48.2,56,29.83,10.0,West,10.4,16.1,N/A,,Partly Cloudy,270,2012-10-10 21:15:00
5:35 PM,64.4,48.2,56,29.83,10.0,West,9.2,-,N/A,,Partly Cloudy,280,2012-10-10 21:35:00
5:55 PM,64.4,46.4,52,29.84,10.0,West,10.4,-,N/A,,Clear,280,2012-10-10 21:55:00
6:15 PM,62.6,46.4,55,29.84,10.0,West,6.9,-,N/A,,Clear,280,2012-10-10 22:15:00
6:35 PM,60.8,48.2,63,29.85,10.0,West,3.5,-,N/A,,Clear,270,2012-10-10 22:35:00
6:55 PM,59.0,48.2,67,29.86,10.0,West,3.5,-,N/A,,Clear,280,2012-10-10 22:55:00
7:15 PM,57.2,48.2,72,29.87,10.0,West,4.6,-,N/A,,Clear,270,2012-10-10 23:15:00
7:35 PM,57.2,48.2,72,29.88,10.0,West,4.6,-,N/A,,Partly Cloudy,260,2012-10-10 23:35:00
7:55 PM,57.2,48.2,72,29.88,10.0,WSW,5.8,-,N/A,,Partly Cloudy,250,2012-10-10 23:55:00
8:15 PM,55.4,48.2,77,29.89,10.0,WSW,5.8,-,N/A,,Clear,250,2012-10-11 00:15:00
8:35 PM,57.2,46.4,67,29.89,10.0,WSW,5.8,-,N/A,,Mostly Cloudy,250,2012-10-11 00:35:00
8:55 PM,57.2,46.4,67,29.90,10.0,WSW,5.8,-,N/A,,Overcast,250,2012-10-11 00:55:00
9:15 PM,57.2,46.4,67,29.90,10.0,WSW,5.8,-,N/A,,Overcast,240,2012-10-11 01:15:00
9:35 PM,57.2,46.4,67,29.91,10.0,WSW,5.8,-,N/A,,Overcast,250,2012-10-11 01:35:00
9:55 PM,57.2,46.4,67,29.93,10.0,WNW,11.5,19.6,N/A,,Overcast,300,2012-10-11 01:55:00
10:15 PM,59.0,46.4,63,29.94,10.0,WNW,8.1,-,N/A,,Overcast,290,2012-10-11 02:15:00
10:35 PM,57.2,46.4,67,29.95,10.0,WNW,8.1,-,N/A,,Overcast,290,2012-10-11 02:35:00
10:55 PM,57.2,44.6,63,29.96,10.0,WNW,18.4,29.9,N/A,,Mostly Cloudy,300,2012-10-11 02:55:00
11:15 PM,57.2,39.2,51,29.97,10.0,WNW,12.7,23.0,N/A,,Partly Cloudy,290,2012-10-11 03:15:00
11:55 PM,55.4,39.2,54,29.98,10.0,West,12.7,16.1,N/A,,Clear,280,2012-10-11 03:55:00